CDT,Max TemperatureF,Mean TemperatureF,Min TemperatureF,Max Dew PointF,MeanDew PointF,Min DewpointF,Max Humidity, Mean Humidity, Min Humidity, Max Sea Level PressureIn, Mean Sea Level PressureIn, Min Sea Level PressureIn, Max VisibilityMiles, Mean VisibilityMiles, Min VisibilityMiles, Max Wind SpeedMPH, Mean Wind SpeedMPH, Max Gust SpeedMPH,PrecipitationIn, CloudCover, Events, WindDirDegrees
2013-5-1,44,39,33,39,32,27,100,82,64,30.56,30.25,29.98,10,5,1,28,15,35,0.84,8,Rain-Snow-Thunderstorm,8
2013-5-2,54,42,29,29,27,23,78,54,29,30.70,30.58,30.48,10,10,10,20,10,33,0.00,3,,358
2013-5-3,55,40,24,28,23,10,92,55,18,30.47,30.27,30.15,10,9,2,25,10,32,0.00,0,,356
2013-5-4,51,42,33,35,28,22,76,58,39,30.24,30.17,30.13,10,10,10,28,16,35,T,6,Rain,353
2013-5-5,63,51,39,39,36,34,89,64,39,30.23,30.19,30.12,10,10,10,18,9,23,T,5,,356
2013-5-6,70,51,32,46,37,32,100,64,28,30.19,30.12,30.03,10,5,0,10,4,18,0.00,1,Fog,135
2013-5-7,63,56,48,55,50,35,93,70,47,30.04,29.98,29.92,10,8,2,17,7,20,0.53,7,Rain-Thunderstorm,142
2013-5-8,76,63,50,55,52,45,100,69,38,29.96,29.92,29.87,10,7,2,21,6,26,0.01,5,Rain,281
2013-5-9,60,52,44,52,51,45,96,84,72,30.10,30.02,29.90,10,8,2,22,11,28,T,6,Rain,1
2013-5-10,74,58,41,52,44,36,100,63,25,30.15,30.10,30.01,10,6,1,16,4,21,0.00,4,,336
2013-5-11,62,50,37,44,29,20,65,44,22,30.35,30.27,30.13,10,10,10,30,13,35,0.00,1,,347
2013-5-12,69,52,35,41,33,26,82,55,28,30.29,30.17,30.04,10,10,10,17,7,24,0.00,1,,156
2013-5-13,94,71,48,52,46,42,80,49,18,30.06,29.93,29.82,10,10,10,20,7,24,0.00,0,,192
2013-5-14,100,76,52,51,46,38,77,46,15,29.82,29.73,29.66,10,10,9,22,8,33,0.00,0,,318
2013-5-15,81,69,57,43,38,32,53,36,18,29.93,29.86,29.79,10,10,10,25,10,39,0.00,0,,76
2013-5-16,78,66,54,64,55,41,93,67,40,29.85,29.80,29.72,10,8,0,28,5,43,0.42,5,Rain-Thunderstorm,159
2013-5-17,86,69,51,61,55,51,100,68,35,29.86,29.81,29.73,10,6,1,20,8,25,0.00,0,,181
2013-5-18,80,71,61,67,61,52,93,80,67,29.87,29.75,29.54,10,8,4,39,10,48,0.01,4,Rain,137
2013-5-19,73,65,56,61,57,54,93,80,66,29.70,29.59,29.50,10,9,1,24,5,30,0.63,6,Rain-Thunderstorm,20
2013-5-20,68,61,53,55,52,48,93,73,52,29.69,29.60,29.56,10,9,1,18,15,27,0.42,7,Rain-Thunderstorm,284
2013-5-21,59,53,46,48,45,42,93,80,66,29.85,29.74,29.68,10,10,10,33,19,40,T,7,,309
2013-5-22,61,54,46,49,45,43,93,79,64,30.09,29.91,29.81,10,10,9,23,14,30,0.00,8,,331
2013-5-23,70,58,46,49,45,42,93,65,37,30.25,30.16,30.07,10,10,5,22,11,31,T,4,Rain,42
2013-5-24,76,63,50,63,54,46,89,69,49,30.19,30.08,29.96,10,9,5,28,14,37,0.16,6,Rain-Thunderstorm,145
2013-5-25,80,70,59,68,60,55,84,73,61,30.06,29.94,29.83,10,10,8,24,12,30,0.16,4,Rain-Thunderstorm,157
2013-5-26,79,70,60,68,64,56,93,79,64,29.88,29.81,29.70,10,8,4,28,11,37,0.13,5,Rain-Thunderstorm,109
2013-5-27,77,67,56,62,58,54,93,77,60,29.82,29.74,29.64,10,8,0,38,8,56,0.91,5,Fog-Rain-Thunderstorm,114
2013-5-28,79,66,52,61,57,52,100,74,48,29.74,29.69,29.60,10,10,7,24,6,30,0.04,2,Rain,72
2013-5-29,74,64,54,66,61,54,93,80,66,29.68,29.55,29.39,10,7,0,40,10,49,1.03,7,Fog-Rain-Thunderstorm,140
2013-5-30,76,66,56,57,54,50,100,71,41,29.61,29.50,29.44,10,10,6,23,12,31,0.02,2,Rain,221
2013-5-31,70,62,53,48,45,43,72,56,40,29.73,29.65,29.62,10,10,10,33,19,43,0.00,1,,268